TimeEST,TemperatureF,Dew PointF,Humidity,Sea Level PressureIn,VisibilityMPH,Wind Direction,Wind SpeedMPH,Gust SpeedMPH,PrecipitationIn,Events,Conditions,WindDirDegrees,DateUTC
12:14 AM,5.5,2.3,86,30.41,10.0,Calm,Calm,-,N/A,,Clear,0,2013-01-27 05:14:00
12:34 AM,4.8,1.0,84,30.41,7.0,Calm,Calm,-,N/A,,Clear,0,2013-01-27 05:34:00
12:55 AM,5.0,1.6,86,30.41,7.0,Calm,Calm,-,N/A,,Clear,0,2013-01-27 05:55:00
1:14 AM,5.5,2.3,86,30.42,10.0,Calm,Calm,-,N/A,,Clear,0,2013-01-27 06:14:00
1:34 AM,8.1,5.0,87,30.43,10.0,Calm,Calm,-,N/A,,Clear,0,2013-01-27 06:34:00
1:55 AM,7.5,4.1,86,30.43,10.0,Calm,Calm,-,N/A,,Scattered Clouds,0,2013-01-27 06:55:00
2:14 AM,9.3,6.3,87,30.43,10.0,Calm,Calm,-,N/A,,Mostly Cloudy,0,2013-01-27 07:14:00
2:34 AM,8.6,5.7,88,30.44,10.0,Calm,Calm,-,N/A,,Mostly Cloudy,0,2013-01-27 07:34:00
2:55 AM,8.6,5.4,87,30.43,10.0,Calm,Calm,-,N/A,,Overcast,0,2013-01-27 07:55:00
3:14 AM,10.2,7.5,89,30.43,10.0,Calm,Calm,-,N/A,,Overcast,0,2013-01-27 08:14:00
3:34 AM,10.2,7.5,89,30.42,10.0,Calm,Calm,-,N/A,,Overcast,0,2013-01-27 08:34:00
3:55 AM,12.6,9.9,89,30.42,10.0,Calm,Calm,-,N/A,,Overcast,0,2013-01-27 08:55:00
4:13 AM,12.9,10.4,90,30.42,10.0,Calm,Calm,-,N/A,,Overcast,0,2013-01-27 09:13:00
4:34 AM,11.8,9.1,89,30.42,10.0,Calm,Calm,-,N/A,,Mostly Cloudy,0,2013-01-27 09:34:00
4:55 AM,11.3,8.2,87,30.42,10.0,Calm,Calm,-,N/A,,Mostly Cloudy,0,2013-01-27 09:55:00
5:14 AM,11.5,8.4,87,30.43,10.0,Calm,Calm,-,N/A,,Mostly Cloudy,0,2013-01-27 10:14:00
5:34 AM,10.9,8.1,88,30.42,10.0,Calm,Calm,-,N/A,,Overcast,0,2013-01-27 10:34:00
5:55 AM,11.8,9.1,89,30.42,10.0,Calm,Calm,-,N/A,,Overcast,0,2013-01-27 10:55:00
6:14 AM,12.6,10.0,90,30.42,10.0,Calm,Calm,-,N/A,,Overcast,0,2013-01-27 11:14:00
6:35 AM,11.8,8.2,85,30.42,10.0,Calm,Calm,-,N/A,,Mostly Cloudy,0,2013-01-27 11:35:00
7:14 AM,11.5,7.7,85,30.42,10.0,Calm,Calm,-,N/A,,Mostly Cloudy,0,2013-01-27 12:14:00
7:35 AM,12.4,9.7,89,30.43,10.0,Calm,Calm,-,N/A,,Overcast,0,2013-01-27 12:35:00
7:54 AM,13.6,10.9,89,30.43,10.0,Calm,Calm,-,N/A,,Overcast,0,2013-01-27 12:54:00
8:15 AM,14.2,11.1,88,30.43,10.0,East,3.5,-,N/A,,Overcast,80,2013-01-27 13:15:00
8:35 AM,15.3,11.3,84,30.43,10.0,SSE,3.5,-,N/A,,Overcast,160,2013-01-27 13:35:00
8:54 AM,16.2,12.4,85,30.44,10.0,Calm,Calm,-,N/A,,Overcast,0,2013-01-27 13:54:00
9:15 AM,18.0,13.1,81,30.44,10.0,Calm,Calm,-,N/A,,Overcast,0,2013-01-27 14:15:00
9:34 AM,19.9,14.5,80,30.44,10.0,SSE,3.5,-,N/A,,Overcast,160,2013-01-27 14:34:00
9:55 AM,21.9,14.0,72,30.43,10.0,SSE,9.2,-,N/A,,Scattered Clouds,160,2013-01-27 14:55:00
10:15 AM,23.7,14.0,66,30.42,10.0,SSE,8.1,-,N/A,,Clear,160,2013-01-27 15:15:00
10:34 AM,25.2,13.6,62,30.42,10.0,South,9.2,-,N/A,,Clear,180,2013-01-27 15:34:00
10:55 AM,25.2,13.3,61,30.42,10.0,South,6.9,-,N/A,,Clear,170,2013-01-27 15:55:00
11:14 AM,26.2,13.8,59,30.42,10.0,SSE,9.2,-,N/A,,Scattered Clouds,150,2013-01-27 16:14:00
11:35 AM,26.6,13.8,59,30.41,10.0,South,13.8,-,N/A,,Overcast,180,2013-01-27 16:35:00
11:54 AM,26.6,13.6,58,30.41,10.0,South,16.1,19.6,N/A,,Overcast,170,2013-01-27 16:54:00
12:14 PM,27.1,14.0,58,30.40,10.0,South,9.2,-,N/A,,Overcast,190,2013-01-27 17:14:00
12:35 PM,28.0,14.4,57,30.39,10.0,South,9.2,-,N/A,,Overcast,180,2013-01-27 17:35:00
12:54 PM,28.8,14.2,55,30.39,10.0,SSW,10.4,16.1,N/A,,Overcast,200,2013-01-27 17:54:00
1:14 PM,28.6,13.6,54,30.38,10.0,SSW,12.7,-,N/A,,Overcast,200,2013-01-27 18:14:00
1:35 PM,29.1,13.8,53,30.37,10.0,South,11.5,-,N/A,,Overcast,180,2013-01-27 18:35:00
1:54 PM,29.1,13.8,53,30.36,10.0,South,12.7,16.1,N/A,,Overcast,180,2013-01-27 18:54:00
2:14 PM,29.5,13.1,51,30.35,10.0,South,9.2,-,N/A,,Mostly Cloudy,180,2013-01-27 19:14:00
2:35 PM,29.8,13.5,51,30.34,10.0,South,9.2,-,N/A,,Scattered Clouds,170,2013-01-27 19:35:00
2:54 PM,29.8,13.6,51,30.33,10.0,SE,8.1,-,N/A,,Mostly Cloudy,140,2013-01-27 19:54:00
3:14 PM,29.8,14.0,52,30.32,10.0,South,9.2,-,N/A,,Overcast,170,2013-01-27 20:14:00
3:35 PM,30.0,13.3,50,30.31,10.0,SSE,10.4,-,N/A,,Overcast,160,2013-01-27 20:35:00
3:54 PM,30.2,13.8,51,30.29,10.0,SE,10.4,-,N/A,,Overcast,140,2013-01-27 20:54:00
4:14 PM,30.2,14.0,51,30.28,10.0,SSE,8.1,-,N/A,,Overcast,150,2013-01-27 21:14:00
4:35 PM,30.2,14.7,53,30.29,10.0,SSE,9.2,-,N/A,,Overcast,150,2013-01-27 21:35:00
4:54 PM,30.2,14.9,53,30.29,10.0,South,9.2,-,N/A,,Overcast,170,2013-01-27 21:54:00
5:15 PM,29.8,14.5,53,30.29,10.0,SSE,10.4,16.1,N/A,,Overcast,160,2013-01-27 22:15:00
5:35 PM,29.5,14.5,54,30.30,10.0,SSE,9.2,-,N/A,,Overcast,160,2013-01-27 22:35:00
5:54 PM,29.3,14.7,55,30.29,10.0,SE,6.9,-,N/A,,Overcast,140,2013-01-27 22:54:00
6:15 PM,29.3,14.9,55,30.29,10.0,SSE,6.9,-,N/A,,Overcast,150,2013-01-27 23:15:00
6:34 PM,28.9,15.3,57,30.29,10.0,SSE,6.9,-,N/A,,Overcast,150,2013-01-27 23:34:00
6:54 PM,28.4,16.2,60,30.28,7.0,SSE,8.1,-,N/A,Snow,Light Snow,160,2013-01-27 23:54:00
7:15 PM,28.0,17.6,65,30.28,10.0,SSE,8.1,-,N/A,,Overcast,150,2013-01-28 00:15:00
7:34 PM,27.5,18.5,69,30.27,4.0,SSE,6.9,-,N/A,Snow,Light Snow,150,2013-01-28 00:34:00
7:54 PM,26.6,20.7,78,30.27,2.5,South,8.1,-,N/A,Snow,Light Snow,170,2013-01-28 00:54:00
8:14 PM,25.7,22.6,88,30.27,1.2,SSE,5.8,-,N/A,Snow,Light Snow,160,2013-01-28 01:14:00
8:34 PM,25.7,23.2,90,30.25,1.2,SE,5.8,-,N/A,Snow,Light Snow,140,2013-01-28 01:34:00
8:55 PM,25.7,23.4,91,30.24,1.2,SE,10.4,-,N/A,Snow,Light Snow,130,2013-01-28 01:55:00
9:14 PM,25.7,23.7,92,30.22,1.5,ESE,10.4,-,N/A,Snow,Light Snow,120,2013-01-28 02:14:00
9:34 PM,26.1,23.9,92,30.20,0.8,ESE,10.4,16.1,N/A,Snow,Snow,120,2013-01-28 02:34:00
9:55 PM,26.1,23.9,92,30.19,1.2,SE,8.1,-,N/A,Snow,Light Snow,130,2013-01-28 02:55:00
10:14 PM,26.2,23.9,91,30.19,1.0,SE,8.1,-,N/A,Snow,Light Snow,130,2013-01-28 03:14:00
10:34 PM,26.2,24.1,92,30.17,1.2,SE,10.4,16.1,N/A,Snow,Light Snow,130,2013-01-28 03:34:00
10:55 PM,26.4,24.3,92,30.17,3.0,SE,10.4,17.3,N/A,Snow,Light Snow,140,2013-01-28 03:55:00
11:14 PM,26.6,24.4,92,30.16,1.2,ESE,8.1,-,N/A,Snow,Light Snow,120,2013-01-28 04:14:00
11:34 PM,27.0,24.8,92,30.14,7.0,ESE,9.2,16.1,N/A,Snow,Light Snow,110,2013-01-28 04:34:00
11:55 PM,27.3,24.8,90,30.13,5.0,ESE,8.1,-,N/A,,Overcast,110,2013-01-28 04:55:00